Weather in Noviy Urengoy

Russia / Yamalo-Nenets Autonomous Okrug     66°05′02″N   76°40′51″E
temp.,
°C
wind,
m/s
gust,
m/s
humid.,
%
clouds,
%
prec.,
mm/h
press.,
hPa
HPBL,
m
27 february, sat
sat2723:00−27w229880 0.1 102319
02:00−28wnw1210088 0.0 102219
05:00−29nw1110089 0.1 102319
08:00−31nnw0110090 0.0 102319
11:00−28n119677 0.0 102319
14:00−28ene119550 0.0 102419
17:00−32ese1110038 0.0 102519
20:00−32ese1210057 0.0 102519
28 february, sun
sun2823:00−32sse229964 0.0 102619
02:00−33sse239931 0.0 102619
05:00−33sse339847 0.0 102719
08:00−33sse349845 0.0 102637
11:00−30sse469743 0.0 1026150
14:00−29sse469620 0.0 1027167
17:00−30sse459710 0.0 102749
20:00−30sse459870 0.0 102667
1 march, mon
mon123:00−30s459874 0.0 102672
02:00−30s459941 0.0 102553
05:00−30s449847 0.0 102550
08:00−30s479869 0.0 102490
11:00−27s589483 0.0 1023231
14:00−25s5894100 0.0 1021253
17:00−26s5896100 0.0 1021132
20:00−27s5119684 0.0 1020147
2 march, tue
tue223:00−27s5109567 0.0 1019166
02:00−27s6109361 0.0 1018174
05:00−27s6129164 0.0 1018192
08:00−26s71293100 0.0 1017241
11:00−24s81490100 0.0 1017336
14:00−22s81390100 0.0 1016365
17:00−22s81491100 0.0 1016340
20:00−23s81491100 0.0 1015286
3 march, wed
wed323:00−23s71390100 0.0 1016308
02:00−24s71392100 0.0 1015279
05:00−25s71293100 0.0 1015252
08:00−26s71494100 0.0 1015266
11:00−24s81493100 0.0 1015333
14:00−22s81393100 0.0 1015358
17:00−22sse81393100 0.0 1015332
20:00−23s81495100 0.0 1014314